Flag for U.S.A. Weather past 2 weeks in Arlington, Texas, U.S.A.

Now
64 °F

Clear.


Feels Like: 64 °F
Forecast: 64 / 89 °F
Wind: 5 mph from South

Location: Arlington Municipal Airport

Current Time: Oct 25, 2014 at 6:16:12 AM

Latest Report: Oct 25, 2014 at 4:53 AM


Visibility: 10 mi

Pressure: 30.08 "Hg

Humidity: 78%

Dew point: 57 °F

Location of ArlingtonLocation

Historic Weather in Arlington — Graph

°F

Arlington temperature yesterday

Maximum temperature yesterday: 85 °F (at 4:53 PM)
Minimum temperature yesterday: 61 °F (at 5:53 AM)
Average temperature yesterday: 71 °F

Past Weeks' High & Low Weather Summary

 TemperatureHumidityPressure
High91 °F (Oct 10, 2:53 PM)93% (Oct 13, 5:02 AM)30.16 "Hg (Oct 13, 5:02 AM)
Low47 °F (Oct 15, 5:53 AM)18% (Oct 16, 1:53 PM)29.55 "Hg (Oct 13, 1:53 AM)
Average68 °F63%29.98 "Hg
* Reported Oct 10 4:53 AM — Oct 25 4:53 AM, Arlington, Weather by CustomWeather, © 2014

Note: Actual official high and low records may vary slightly from our data, if they occured in-between our weather recording intervals... More about our weather records

Advertising

Arlington weather history for previous 24 hours

 ConditionsComfort  
Time TempWeatherWind HumidityBarometerVisibility
4:53 AM
Oct 25
64 °FClear.5 mph78%30.08 "Hg10 mi
3:53 AM66 °FClear.6 mph73%30.07 "Hg10 mi
2:53 AM68 °FClear.8 mph68%30.08 "Hg10 mi
1:53 AM68 °FClear.7 mph70%30.08 "Hg10 mi
12:53 AM68 °FClear.6 mph70%30.07 "Hg10 mi
11:53 PM
Oct 24
70 °FClear.7 mph66%30.08 "Hg10 mi
10:53 PM71 °FClear.8 mph66%30.08 "Hg10 mi
9:53 PM72 °FClear.5 mph64%30.07 "Hg10 mi
8:53 PM72 °FClear.5 mph64%30.06 "Hg10 mi
7:53 PM75 °FClear.5 mph58%30.06 "Hg10 mi
6:53 PM78 °FSunny.6 mph52%30.04 "Hg10 mi
5:53 PM83 °FSunny.8 mph43%30.04 "Hg10 mi
4:53 PM85 °FSunny.8 mph42%30.05 "Hg10 mi
3:53 PM84 °FSunny.3 mph43%30.05 "Hg10 mi
2:53 PM83 °FSunny.5 mph44%30.06 "Hg10 mi
1:53 PM81 °FSunny.7 mph45%30.09 "Hg10 mi
12:53 PM79 °FSunny.7 mph47%30.12 "Hg10 mi
11:53 AM76 °FSunny.12 mph47%30.15 "Hg10 mi
10:53 AM70 °FSunny.10 mph55%30.16 "Hg10 mi
9:53 AM67 °FSunny.9 mph59%30.16 "Hg10 mi
8:53 AM63 °FSunny.7 mph75%30.14 "Hg10 mi
7:53 AM62 °FOvercast.6 mph75%30.12 "Hg10 mi
6:53 AM61 °FPassing clouds.5 mph81%30.11 "Hg10 mi
Weather by CustomWeather, © 2014

See weather overviewHow to use our weather pages